Surface/Precipitation History
02/08/2018 18:25  to  2/9/2018 18:25
Change End Date:
Date/Time
(MST)
Sf
Temp Chem Water Layer Surface Precipitation
Sfc Pvt Sub Frz Factor Pct Dpth DpthThk IcePct Cond Salin FI Type Intens Accum Rate
02/09/2018 18:23 Dry 8.8F - 28F - - - - - - 0 mhos 3 - None None - -
02/09/2018 18:20 Dry 9.1F - 28F - - - - - - 0 mhos 3 - None None - -
02/09/2018 18:13 Ice Watch 9.3F - 28F - 5 - - - - 0 mhos 4 - None None - -
02/09/2018 18:05 Dry 9.7F - 28F - - - - - - 0 mhos 4 - None None - -
02/09/2018 18:02 Dry 9.9F - 28F - - - - - - 0 mhos 4 - None None - -
02/09/2018 17:52 Dry 10.6F - 28F - - - - - - 0 mhos 4 - None None - -
02/09/2018 17:50 Dry 10.8F - 28F - - - - - - 0 mhos 4 - None None - -
02/09/2018 17:42 Dry 11.1F - 28F - - - - - - 0 mhos 4 - None None - -
02/09/2018 17:35 Dry 11.7F - 28F - - - - - - 0 mhos 4 - None None - -
02/09/2018 17:32 Dry 12.0F - 28F - - - - - - 0 mhos 4 - None None - -
02/09/2018 17:22 Dry 12.6F - 27F - - - - - - 0 mhos 5 - None None - -
02/09/2018 17:20 Dry 13.3F - 28F - - - - - - 0 mhos 6 - None None - -
02/09/2018 17:12 Dry 14.0F - 28F - - - - - - 0 mhos 6 - None None - -
02/09/2018 17:05 Ice Warning 15.1F - 28F 32F 5 0% - - 100% 0 mhos 7 - None None - -
02/09/2018 17:02 Ice Warning 15.1F - 28F 32F 5 0% - - 100% 0 mhos 8 - None None - -
Date/Time
(MST)
Sf
Temp Chem Water Layer Surface Precipitation
Sfc Pvt Sub Frz Factor Pct Dpth DpthThk IcePct Cond Salin FI Type Intens Accum Rate
02/09/2018 16:52 Ice Warning 16.5F - 28F 32F 5 0% - - 100% 0 mhos 8 - None None - -
02/09/2018 16:50 Ice Warning 16.7F - 28F 32F 5 0% - - 100% 0 mhos 7 - None None - -
02/09/2018 16:42 Ice Warning 18.0F - 28F 32F 5 0% - - 100% 0 mhos 7 - None None - -
02/09/2018 16:35 Ice Warning 19.2F - 28F 32F 5 0% - - 100% 0 mhos 6 - None None - -
02/09/2018 16:32 Ice Warning 19.8F - 28F 32F 5 0% - - 100% 0 mhos 7 - None None - -
02/09/2018 16:22 Ice Warning 20.7F - 28F 32F 5 0% - - 100% 0 mhos 6 - None None - -
02/09/2018 16:20 Ice Warning 20.8F - 28F 32F 5 0% - - 100% 0 mhos 6 - None None - -
02/09/2018 16:12 Ice Warning 21.7F - 28F 32F 5 0% - - 100% 0 mhos 5 - None None - -
02/09/2018 16:05 Ice Warning 22.3F - 28F 32F 5 0% - - 100% 0 mhos 5 - None None - -
02/09/2018 16:02 Ice Warning 22.5F - 28F 32F 5 0% - - 100% 0 mhos 5 - None None - -
02/09/2018 15:52 Ice Warning 22.5F - 28F 32F 10 0% - - 100% 0 mhos 5 - None None - -
02/09/2018 15:50 Ice Warning 22.6F - 28F 32F 10 0% - - 100% 0 mhos 4 - None None - -
02/09/2018 15:42 Ice Watch 23.4F - 28F - 15 - - - - 0 mhos 4 - None None - -
02/09/2018 15:35 Ice Watch 25.3F - 28F - 20 - - - - 0 mhos 4 - None None - -
02/09/2018 15:32 Ice Watch 26.2F - 28F - 20 - - - - 0 mhos 4 - None None - -
Date/Time
(MST)
Sf
Temp Chem Water Layer Surface Precipitation
Sfc Pvt Sub Frz Factor Pct Dpth DpthThk IcePct Cond Salin FI Type Intens Accum Rate
02/09/2018 15:22 Ice Watch 29.7F - 28F - 30 - - - - 0 mhos 3 - None None - -
02/09/2018 15:20 Trace Moisture 32.4F - 28F - 45 - - - - 0 mhos 2 - None None - -
02/09/2018 15:12 Dry 33.1F - 28F - - - - - - 0 mhos 2 - None None - -
02/09/2018 15:05 Dry 34.0F - 28F - - - - - - 0 mhos 3 - None None - -
02/09/2018 15:02 Wet 33.1F - 28F 32F 5 0% 0.00 in - 0% 0 mhos 3 - None None - -
02/09/2018 14:52 Wet 34.9F - 28F 32F 5 0% 0.00 in - 0% 0 mhos 5 - None None - -
02/09/2018 14:50 Wet 34.3F - 28F 32F 5 0% 0.00 in - 0% 0 mhos 5 - None None - -
02/09/2018 14:42 Wet 34.5F - 28F 32F 35 0% 0.10 in - 0% 0 mhos 5 - None None - -
02/09/2018 14:35 Wet 35.6F - 28F 32F 5 0% 0.00 in - 0% 0 mhos 5 - Yes - - -
02/09/2018 14:31 Wet 35.1F - 28F 32F 55 0% 0.10 in - 0% 0 mhos 6 - None None - -
02/09/2018 14:21 Wet 34.9F - 28F 32F 60 0% 0.10 in - 0% 0 mhos 11 - None None - -
02/09/2018 14:20 Wet 34.0F - 28F 32F 70 0% 0.10 in - 0% 0 mhos 12 - Yes - - -
02/09/2018 14:11 Trace Moisture 35.8F - 28F - 70 - - - - 0 mhos 21 - None None - -
02/09/2018 14:05 Trace Moisture 36.3F - 28F - 65 - - - - 0 mhos 33 - None None - -
02/09/2018 14:01 Trace Moisture 36.3F - 28F - 45 - - - - 0 mhos 41 - None None - -
Date/Time
(MST)
Sf
Temp Chem Water Layer Surface Precipitation
Sfc Pvt Sub Frz Factor Pct Dpth DpthThk IcePct Cond Salin FI Type Intens Accum Rate
02/09/2018 13:51 Trace Moisture 36.3F - 28F - 60 - - - - 1 mhos 63 - None None - -
02/09/2018 13:50 Trace Moisture 36.7F - 28F - 65 - - - - 1 mhos 64 - None None - -
02/09/2018 13:41 Trace Moisture 36.9F - 28F - 5 - - - - 1 mhos 81 - None None - -
02/09/2018 13:35 Dry 36.1F - 28F - - - - - - 1 mhos 103 - None None - -
02/09/2018 13:31 Dry 35.4F - 28F - - - - - - 1 mhos 115 - None None - -
02/09/2018 13:21 Wet 34.0F - 28F 32F 5 0% 0.00 in - 0% 0 mhos 46 - None None - -
02/09/2018 13:20 Wet 33.6F - 28F 32F 15 0% 0.00 in - 0% 0 mhos 43 - None None - -
02/09/2018 13:11 Wet 34.3F - 28F 32F 5 0% 0.00 in - 0% 0 mhos 8 - None None - -
02/09/2018 13:05 Dry 34.5F - 28F - - - - - - 0 mhos 14 - Yes - - -
02/09/2018 13:01 Dry 34.0F - 28F - - - - - - 0 mhos 8 - None None - -
02/09/2018 12:51 Wet 32.5F - 28F 32F 15 0% 0.00 in - 0% 0 mhos 9 - None None - -
02/09/2018 12:50 Wet 32.2F - 28F 32F 15 0% 0.00 in - 0% 0 mhos 9 - None None - -
02/09/2018 12:41 Ice Warning 31.5F - 28F 32F 10 0% - - 99% 0 mhos 10 - None None - -
02/09/2018 12:35 Ice Warning 30.4F - 28F 32F 10 0% - - 100% 0 mhos 12 - None None - -
02/09/2018 12:31 Ice Warning 30.0F - 28F 32F 15 0% - - 100% 0 mhos 14 - Yes - - -
Date/Time
(MST)
Sf
Temp Chem Water Layer Surface Precipitation
Sfc Pvt Sub Frz Factor Pct Dpth DpthThk IcePct Cond Salin FI Type Intens Accum Rate
02/09/2018 12:21 Ice Warning 27.1F - 28F 32F 10 0% - - 100% 0 mhos 18 - Yes - - -
02/09/2018 12:20 Ice Warning 27.3F - 28F 32F 10 0% - - 100% 0 mhos 18 - Yes - - -
02/09/2018 12:11 Ice Warning 26.4F - 28F 32F 10 0% - - 100% 0 mhos 19 - None None - -
02/09/2018 12:05 Ice Warning 26.6F - 28F 32F 10 0% - - 100% 0 mhos 19 - None None - -
02/09/2018 12:01 Ice Warning 26.2F - 28F 32F 5 0% - - 100% 0 mhos 19 - Yes - - -
02/09/2018 11:51 Ice Warning 25.9F - 28F 32F 5 0% - - 100% 0 mhos 20 - None None - -
02/09/2018 11:50 Ice Warning 25.0F - 28F 32F 5 0% - - 100% 0 mhos 21 - None None - -
02/09/2018 11:41 Ice Warning 25.7F - 28F 32F 5 0% - - 100% 0 mhos 20 - None None - -
02/09/2018 11:35 Ice Warning 25.9F - 28F 32F 10 0% - - 100% 0 mhos 20 - None None - -
02/09/2018 11:31 Ice Warning 26.4F - 28F 32F 10 0% - - 100% 0 mhos 20 - Yes - - -
02/09/2018 11:21 Ice Warning 23.4F - 28F 32F 5 0% - - 100% 0 mhos 25 - None None - -
02/09/2018 11:20 Ice Warning 23.4F - 28F 32F 5 0% - - 100% 0 mhos 25 - None None - -
02/09/2018 11:10 Ice Warning 22.6F - 28F 32F 5 0% - - 100% 0 mhos 26 - Yes - - -
02/09/2018 11:05 Ice Warning 21.2F - 28F 32F 5 0% - - 100% 0 mhos 29 - Yes - - -
02/09/2018 11:00 Ice Warning 20.7F - 28F 32F 5 0% - - 100% 0 mhos 28 - Yes - - -
Date/Time
(MST)
Sf
Temp Chem Water Layer Surface Precipitation
Sfc Pvt Sub Frz Factor Pct Dpth DpthThk IcePct Cond Salin FI Type Intens Accum Rate
02/09/2018 10:50 Ice Warning 18.7F - 28F 32F 5 0% - - 100% 0 mhos 27 - None None - -
02/09/2018 10:50 Ice Warning 19.2F - 28F 32F 5 0% - - 100% 0 mhos 27 - None None - -
02/09/2018 10:40 Ice Warning 18.9F - 28F 32F 5 0% - - 100% 0 mhos 26 - None None - -
02/09/2018 10:35 Ice Warning 18.1F - 28F 32F 5 0% - - 100% 0 mhos 27 - None None - -
02/09/2018 10:30 Ice Warning 17.1F - 28F 32F 5 0% - - 100% 0 mhos 27 - None None - -
02/09/2018 10:20 Ice Warning 16.3F - 28F 32F 5 0% - - 100% 0 mhos 28 - None None - -
02/09/2018 10:20 Ice Warning 16.3F - 28F 32F 5 0% - - 100% 0 mhos 28 - None None - -
02/09/2018 10:10 Ice Warning 14.9F - 28F 32F 5 0% - - 100% 0 mhos 28 - None None - -
02/09/2018 10:05 Ice Warning 14.2F - 28F 32F 5 0% - - 100% 0 mhos 27 - None None - -
02/09/2018 10:00 Ice Warning 14.2F - 28F 32F 5 0% - - 100% 0 mhos 27 - None None - -
02/09/2018 09:50 Ice Warning 12.9F - 28F 32F 5 0% - - 100% 0 mhos 26 - Yes - - -
02/09/2018 09:50 Ice Warning 12.7F - 28F 32F 5 0% - - 100% 0 mhos 26 - Yes - - -
02/09/2018 09:40 Ice Warning 11.8F - 28F 32F 5 0% - - 100% 0 mhos 28 - Yes - - -
02/09/2018 09:35 Ice Warning 11.7F - 28F 32F 5 0% - - 100% 0 mhos 28 - Yes - - -
02/09/2018 09:30 Ice Warning 10.9F - 28F 32F 5 0% - - 100% 0 mhos 27 - Yes - - -
Date/Time
(MST)
Sf
Temp Chem Water Layer Surface Precipitation
Sfc Pvt Sub Frz Factor Pct Dpth DpthThk IcePct Cond Salin FI Type Intens Accum Rate
02/09/2018 09:20 Ice Warning 10.6F - 28F 32F 5 0% - - 100% 0 mhos 27 - Yes - - -
02/09/2018 09:20 Ice Warning 10.6F - 28F 32F 5 0% - - 100% 0 mhos 27 - Yes - - -
02/09/2018 09:10 Ice Warning 9.3F - 28F 32F 5 0% - - 100% 0 mhos 26 - Yes - - -
02/09/2018 09:05 Ice Warning 9.3F - 28F 32F 5 0% - - 100% 0 mhos 26 - Yes - - -
02/09/2018 09:00 Ice Warning 9.0F - 28F 32F 5 0% - - 100% 0 mhos 26 - Yes - - -
02/09/2018 08:50 Ice Warning 9.0F - 28F 32F 5 0% - - 100% 0 mhos 25 - Yes - - -
02/09/2018 08:50 Ice Warning 9.0F - 28F 32F 5 0% - - 100% 0 mhos 25 - Yes - - -
02/09/2018 08:40 Ice Warning 9.1F - 28F 32F 5 0% - - 100% 0 mhos 25 - Yes - - -
02/09/2018 08:35 Ice Warning 8.6F - 28F 32F 5 0% - - 100% 0 mhos 25 - Yes - - -
02/09/2018 08:30 Ice Warning 8.4F - 28F 32F 5 0% - - 100% 0 mhos 25 - Yes - - -
02/09/2018 08:20 Ice Warning 7.7F - 28F 32F 5 0% - - 100% 0 mhos 24 - Yes - - -
02/09/2018 08:20 Ice Warning 7.7F - 28F 32F 5 0% - - 100% 0 mhos 24 - Yes - - -
02/09/2018 08:10 Ice Warning 7.7F - 28F 32F 5 0% - - 100% 0 mhos 24 - Yes - - -
02/09/2018 08:05 Ice Warning 7.7F - 28F 32F 5 0% - - 100% 0 mhos 24 - None None - -
02/09/2018 08:00 Ice Warning 7.5F - 28F 32F 5 0% - - 100% 0 mhos 24 - None None - -
Date/Time
(MST)
Sf
Temp Chem Water Layer Surface Precipitation
Sfc Pvt Sub Frz Factor Pct Dpth DpthThk IcePct Cond Salin FI Type Intens Accum Rate
02/09/2018 07:50 Ice Warning 7.3F - 28F 32F 5 0% - - 100% 0 mhos 23 - None None - -
02/09/2018 07:50 Ice Warning 7.2F - 28F 32F 5 0% - - 100% 0 mhos 23 - None None - -
02/09/2018 07:40 Ice Warning 7.0F - 28F 32F 5 0% - - 100% 0 mhos 23 - None None - -
02/09/2018 07:35 Ice Warning 6.8F - 28F 32F 5 0% - - 100% 0 mhos 23 - None None - -
02/09/2018 07:30 Ice Warning 7.0F - 28F 32F 5 0% - - 100% 0 mhos 23 - Yes - - -
02/09/2018 07:20 Ice Warning 7.0F - 28F 32F 5 0% - - 100% 0 mhos 24 - None None - -
02/09/2018 07:19 Ice Warning 7.0F - 28F 32F 5 0% - - 100% 0 mhos 24 - None None - -
02/09/2018 07:09 Ice Warning 7.2F - 28F 32F 5 0% - - 100% 0 mhos 23 - Yes - - -
02/09/2018 07:05 Ice Warning 7.2F - 28F 32F 5 0% - - 100% 0 mhos 24 - None None - -
02/09/2018 06:59 Ice Warning 7.3F - 28F 32F 5 0% - - 100% 0 mhos 24 - None None - -
02/09/2018 06:50 Ice Warning 7.3F - 28F 32F 5 0% - - 100% 0 mhos 24 - None None - -
02/09/2018 06:49 Ice Warning 7.3F - 28F 32F 5 0% - - 100% 0 mhos 24 - None None - -
02/09/2018 06:39 Ice Warning 7.7F - 28F 32F 5 0% - - 100% 0 mhos 25 - None None - -
02/09/2018 06:35 Ice Warning 7.9F - 28F 32F 5 0% - - 100% 0 mhos 25 - Yes - - -
02/09/2018 06:29 Ice Warning 7.7F - 29F 32F 5 0% - - 100% 0 mhos 25 - Yes - - -
Date/Time
(MST)
Sf
Temp Chem Water Layer Surface Precipitation
Sfc Pvt Sub Frz Factor Pct Dpth DpthThk IcePct Cond Salin FI Type Intens Accum Rate
02/09/2018 06:20 Ice Warning 8.1F - 28F 32F 5 0% - - 100% 0 mhos 25 - Yes - - -
02/09/2018 06:19 Ice Warning 7.9F - 28F 32F 5 0% - - 100% 0 mhos 26 - Yes - - -
02/09/2018 06:09 Ice Warning 8.4F - 28F 32F 5 0% - - 100% 0 mhos 25 - Yes - - -
02/09/2018 06:05 Ice Warning 8.4F - 28F 32F 5 0% - - 100% 0 mhos 25 - Yes - - -
02/09/2018 05:59 Ice Warning 8.4F - 29F 32F 5 0% - - 100% 0 mhos 26 - Yes - - -
02/09/2018 05:50 Ice Warning 8.4F - 29F 32F 5 0% - - 100% 0 mhos 25 - Yes - - -
02/09/2018 05:49 Ice Warning 8.2F - 28F 32F 5 0% - - 100% 0 mhos 26 - Yes - - -
02/09/2018 05:39 Ice Warning 8.2F - 29F 32F 5 0% - - 100% 0 mhos 26 - Yes - - -
02/09/2018 05:35 Ice Warning 8.2F - 29F 32F 5 0% - - 100% 0 mhos 26 - Yes - - -
02/09/2018 05:29 Ice Warning 8.2F - 29F 32F 5 0% - - 100% 0 mhos 26 - Yes - - -
02/09/2018 05:20 Ice Warning 8.1F - 29F 32F 5 0% - - 100% 0 mhos 25 - Yes - - -
02/09/2018 05:19 Ice Warning 7.9F - 29F 32F 5 0% - - 100% 0 mhos 25 - Yes - - -
02/09/2018 05:09 Ice Warning 7.5F - 29F 32F 5 0% - - 100% 0 mhos 25 - Yes - - -
02/09/2018 05:05 Ice Warning 7.3F - 29F 32F 5 0% - - 100% 0 mhos 25 - Yes - - -
02/09/2018 04:59 Ice Warning 7.2F - 29F 32F 5 0% - - 100% 0 mhos 25 - Yes - - -
Date/Time
(MST)
Sf
Temp Chem Water Layer Surface Precipitation
Sfc Pvt Sub Frz Factor Pct Dpth DpthThk IcePct Cond Salin FI Type Intens Accum Rate
02/09/2018 04:50 Ice Warning 7.3F - 29F 32F 5 0% - - 100% 0 mhos 24 - Yes - - -
02/09/2018 04:49 Ice Warning 7.2F - 29F 32F 5 0% - - 100% 0 mhos 25 - Yes - - -
02/09/2018 04:39 Ice Warning 7.3F - 29F 32F 5 0% - - 100% 0 mhos 25 - Yes - - -
02/09/2018 04:35 Ice Warning 7.3F - 29F 32F 5 0% - - 100% 0 mhos 25 - Yes - - -
02/09/2018 04:28 Ice Warning 7.5F - 29F 32F 5 0% - - 100% 0 mhos 25 - Yes - - -
02/09/2018 04:20 Ice Warning 7.3F - 29F 32F 5 0% - - 100% 0 mhos 25 - Yes - - -
02/09/2018 04:18 Ice Warning 7.3F - 29F 32F 5 0% - - 100% 0 mhos 25 - Yes - - -
02/09/2018 04:08 Ice Warning 7.2F - 29F 32F 5 0% - - 100% 0 mhos 25 - Yes - - -
02/09/2018 04:05 Ice Warning 7.2F - 29F 32F 5 0% - - 100% 0 mhos 25 - Yes - - -
02/09/2018 03:58 Ice Warning 7.2F - 29F 32F 5 0% - - 100% 0 mhos 24 - Yes - - -
02/09/2018 03:50 Ice Warning 7.2F - 29F 32F 5 0% - - 100% 0 mhos 24 - Yes - - -
02/09/2018 03:48 Ice Warning 7.0F - 29F 32F 5 0% - - 100% 0 mhos 24 - Yes - - -
02/09/2018 03:38 Ice Warning 6.8F - 29F 32F 5 0% - - 100% 0 mhos 24 - Yes - - -
02/09/2018 03:35 Ice Warning 7.0F - 29F 32F 5 0% - - 100% 0 mhos 24 - Yes - - -
02/09/2018 03:28 Dry 6.8F - 29F - - - - - - 0 mhos 23 - Yes - - -
Date/Time
(MST)
Sf
Temp Chem Water Layer Surface Precipitation
Sfc Pvt Sub Frz Factor Pct Dpth DpthThk IcePct Cond Salin FI Type Intens Accum Rate
02/09/2018 03:20 Dry 6.8F - 29F - - - - - - 0 mhos 23 - Yes - - -
02/09/2018 03:18 Dry 6.8F - 29F - - - - - - 0 mhos 23 - Yes - - -
02/09/2018 03:08 Dry 7.2F - 29F - - - - - - 0 mhos 23 - None None - -
02/09/2018 03:05 Dry 6.8F - 29F - - - - - - 0 mhos 23 - None None - -
02/09/2018 02:58 Dry 6.8F - 29F - - - - - - 0 mhos 24 - None None - -
02/09/2018 02:50 Dry 7.2F - 29F - - - - - - 0 mhos 24 - None None - -
02/09/2018 02:48 Dry 7.0F - 29F - - - - - - 0 mhos 25 - None None - -
02/09/2018 02:38 Ice Warning 6.6F - 29F 32F 5 0% - - 100% 0 mhos 28 - None None - -
02/09/2018 02:35 Ice Warning 6.4F - 29F 32F 5 0% - - 100% 0 mhos 27 - None None - -
02/09/2018 02:28 Ice Warning 6.1F - 29F 32F 5 0% - - 100% 0 mhos 27 - None None - -
02/09/2018 02:20 Ice Warning 5.9F - 29F 32F 5 0% - - 100% 0 mhos 27 - None None - -
02/09/2018 02:18 Ice Warning 5.7F - 29F 32F 5 0% - - 100% 0 mhos 27 - None None - -
02/09/2018 02:08 Ice Warning 5.4F - 29F 32F 5 0% - - 100% 0 mhos 27 - None None - -
02/09/2018 02:05 Ice Warning 5.2F - 29F 32F 5 0% - - 100% 0 mhos 26 - None None - -
02/09/2018 01:58 Ice Warning 5.5F - 29F 32F 5 0% - - 100% 0 mhos 26 - None None - -
Date/Time
(MST)
Sf
Temp Chem Water Layer Surface Precipitation
Sfc Pvt Sub Frz Factor Pct Dpth DpthThk IcePct Cond Salin FI Type Intens Accum Rate
02/09/2018 01:50 Ice Warning 5.7F - 29F 32F 5 0% - - 100% 0 mhos 27 - None None - -
02/09/2018 01:48 Ice Warning 5.7F - 29F 32F 5 0% - - 100% 0 mhos 28 - None None - -
02/09/2018 01:38 Ice Warning 6.4F - 29F 32F 5 0% - - 100% 0 mhos 28 - None None - -
02/09/2018 01:35 Ice Warning 6.3F - 29F 32F 5 0% - - 100% 0 mhos 28 - None None - -
02/09/2018 01:28 Ice Warning 6.4F - 29F 32F 5 0% - - 100% 0 mhos 28 - None None - -
02/09/2018 01:20 Ice Warning 6.6F - 29F 32F 5 0% - - 100% 0 mhos 29 - None None - -
02/09/2018 01:17 Ice Warning 6.6F - 29F 32F 5 0% - - 100% 0 mhos 29 - None None - -
02/09/2018 01:07 Ice Warning 6.8F - 29F 32F 5 0% - - 100% 0 mhos 29 - None None - -
02/09/2018 01:05 Ice Warning 6.8F - 29F 32F 5 0% - - 100% 0 mhos 29 - None None - -
02/09/2018 00:57 Ice Warning 6.6F - 29F 32F 5 0% - - 100% 0 mhos 30 - None None - -
02/09/2018 00:50 Ice Warning 7.2F - 29F 32F 5 0% - - 100% 0 mhos 26 - None None - -
02/09/2018 00:47 Ice Warning 7.0F - 29F 32F 5 0% - - 100% 0 mhos 26 - None None - -
02/09/2018 00:37 Ice Warning 7.3F - 29F 32F 5 0% - - 100% 0 mhos 27 - None None - -
02/09/2018 00:35 Ice Warning 7.7F - 29F 32F 5 0% - - 100% 0 mhos 27 - None None - -
02/09/2018 00:27 Ice Warning 7.9F - 29F 32F 5 0% - - 100% 0 mhos 27 - Yes - - -
Date/Time
(MST)
Sf
Temp Chem Water Layer Surface Precipitation
Sfc Pvt Sub Frz Factor Pct Dpth DpthThk IcePct Cond Salin FI Type Intens Accum Rate
02/09/2018 00:20 Ice Warning 7.9F - 29F 32F 5 0% - - 100% 0 mhos 28 - Yes - - -
02/09/2018 00:17 Ice Warning 7.9F - 29F 32F 5 0% - - 100% 0 mhos 28 - None None - -
02/09/2018 00:07 Ice Warning 8.4F - 29F 32F 5 0% - - 100% 0 mhos 28 - None None - -
02/09/2018 00:05 Ice Warning 8.4F - 29F 32F 5 0% - - 100% 0 mhos 28 - None None - -
02/08/2018 23:57 Ice Warning 9.1F - 29F 32F 5 0% - - 100% 0 mhos 29 - None None - -
02/08/2018 23:50 Ice Warning 9.3F - 29F 32F 5 0% - - 100% 0 mhos 30 - Yes - - -
02/08/2018 23:47 Ice Warning 9.5F - 29F 32F 5 0% - - 100% 0 mhos 30 - Yes - - -
02/08/2018 23:37 Ice Warning 9.7F - 29F 32F 5 0% - - 100% 0 mhos 30 - Yes - - -
02/08/2018 23:35 Ice Warning 9.7F - 29F 32F 5 0% - - 100% 0 mhos 30 - None None - -
02/08/2018 23:27 Ice Warning 10.2F - 29F 32F 5 0% - - 100% 0 mhos 31 - Yes - - -
02/08/2018 23:20 Ice Warning 10.0F - 29F 32F 5 0% - - 100% 0 mhos 31 - Yes - - -
02/08/2018 23:17 Ice Warning 10.0F - 29F 32F 5 0% - - 100% 0 mhos 31 - None None - -
02/08/2018 23:07 Ice Warning 10.2F - 29F 32F 5 0% - - 100% 0 mhos 31 - Yes - - -
02/08/2018 23:05 Ice Warning 10.0F - 29F 32F 5 0% - - 100% 0 mhos 31 - Yes - - -
02/08/2018 22:57 Ice Warning 10.2F - 29F 32F 5 0% - - 100% 0 mhos 32 - Yes - - -
Date/Time
(MST)
Sf
Temp Chem Water Layer Surface Precipitation
Sfc Pvt Sub Frz Factor Pct Dpth DpthThk IcePct Cond Salin FI Type Intens Accum Rate
02/08/2018 22:50 Ice Warning 10.4F - 29F 32F 5 0% - - 100% 0 mhos 32 - Yes - - -
02/08/2018 22:47 Ice Warning 10.4F - 29F 32F 5 0% - - 100% 0 mhos 31 - Yes - - -
02/08/2018 22:37 Ice Warning 10.6F - 29F 32F 5 0% - - 100% 0 mhos 32 - Yes - - -
02/08/2018 22:35 Ice Warning 10.6F - 29F 32F 5 0% - - 100% 0 mhos 32 - Yes - - -
02/08/2018 22:27 Ice Warning 10.4F - 29F 32F 5 0% - - 100% 0 mhos 32 - Yes - - -
02/08/2018 22:20 Ice Warning 10.2F - 29F 32F 5 0% - - 100% 0 mhos 32 - Yes - - -
02/08/2018 22:17 Ice Warning 10.2F - 29F 32F 5 0% - - 100% 0 mhos 31 - Yes - - -
02/08/2018 22:06 Ice Warning 10.4F - 29F 32F 5 0% - - 100% 0 mhos 32 - Yes - - -
02/08/2018 22:05 Ice Warning 10.6F - 29F 32F 5 0% - - 100% 0 mhos 32 - None None - -
02/08/2018 21:56 Ice Warning 10.6F - 29F 32F 5 0% - - 100% 0 mhos 32 - Yes - - -
02/08/2018 21:50 Ice Warning 10.4F - 29F 32F 5 0% - - 100% 0 mhos 32 - None None - -
02/08/2018 21:46 Ice Warning 10.6F - 29F 32F 5 0% - - 100% 0 mhos 33 - Yes - - -
02/08/2018 21:36 Ice Warning 10.4F - 29F 32F 5 0% - - 100% 0 mhos 32 - None None - -
02/08/2018 21:35 Ice Warning 10.6F - 29F 32F 5 0% - - 100% 0 mhos 32 - Yes - - -
02/08/2018 21:26 Ice Warning 10.6F - 29F 32F 5 0% - - 100% 0 mhos 33 - None None - -
Date/Time
(MST)
Sf
Temp Chem Water Layer Surface Precipitation
Sfc Pvt Sub Frz Factor Pct Dpth DpthThk IcePct Cond Salin FI Type Intens Accum Rate
02/08/2018 21:20 Ice Warning 10.6F - 29F 32F 5 0% - - 100% 0 mhos 33 - None None - -
02/08/2018 21:16 Ice Warning 10.8F - 29F 32F 5 0% - - 100% 0 mhos 32 - Yes - - -
02/08/2018 21:06 Ice Warning 11.1F - 29F 32F 5 0% - - 100% 0 mhos 34 - Yes - - -
02/08/2018 21:05 Ice Warning 11.1F - 29F 32F 5 0% - - 100% 0 mhos 34 - Yes - - -
02/08/2018 20:56 Ice Warning 11.3F - 29F 32F 5 0% - - 100% 0 mhos 34 - None None - -
02/08/2018 20:50 Ice Warning 11.5F - 29F 32F 5 0% - - 100% 0 mhos 31 - Yes - - -
02/08/2018 20:46 Ice Warning 11.5F - 29F 32F 5 0% - - 100% 0 mhos 35 - Yes - - -
02/08/2018 20:36 Ice Warning 11.5F - 29F 32F 5 0% - - 100% 0 mhos 34 - Yes - - -
02/08/2018 20:35 Ice Warning 11.3F - 29F 32F 5 0% - - 100% 0 mhos 35 - None None - -
02/08/2018 20:26 Ice Warning 11.5F - 29F 32F 5 0% - - 100% 0 mhos 32 - Yes - - -
02/08/2018 20:20 Ice Warning 11.5F - 29F 32F 5 0% - - 100% 0 mhos 32 - Yes - - -
02/08/2018 20:16 Ice Warning 11.5F - 29F 32F 5 0% - - 100% 0 mhos 32 - Yes - - -
02/08/2018 20:06 Ice Warning 12.0F - 29F 32F 5 0% - - 100% 0 mhos 33 - Yes - - -
02/08/2018 20:05 Ice Warning 12.0F - 29F 32F 5 0% - - 100% 0 mhos 32 - Yes - - -
02/08/2018 19:56 Ice Warning 12.2F - 29F 32F 5 0% - - 100% 0 mhos 32 - Yes - - -
Date/Time
(MST)
Sf
Temp Chem Water Layer Surface Precipitation
Sfc Pvt Sub Frz Factor Pct Dpth DpthThk IcePct Cond Salin FI Type Intens Accum Rate
02/08/2018 19:50 Ice Warning 12.2F - 29F 32F 5 0% - - 100% 0 mhos 33 - Yes - - -
02/08/2018 19:46 Ice Warning 12.4F - 29F 32F 5 0% - - 100% 0 mhos 33 - Yes - - -
02/08/2018 19:36 Ice Warning 12.2F - 29F 32F 5 0% - - 100% 0 mhos 33 - Yes - - -
02/08/2018 19:35 Ice Warning 12.2F - 29F 32F 5 0% - - 100% 0 mhos 33 - Yes - - -
02/08/2018 19:26 Ice Warning 12.4F - 29F 32F 5 0% - - 100% 0 mhos 33 - Yes - - -
02/08/2018 19:20 Ice Warning 12.7F - 29F 32F 5 0% - - 100% 0 mhos 34 - Yes - - -
02/08/2018 19:16 Ice Warning 13.3F - 29F 32F 5 0% - - 100% 0 mhos 34 - Yes - - -
02/08/2018 19:06 Ice Warning 12.9F - 29F 32F 5 0% - - 100% 0 mhos 34 - Yes - - -
02/08/2018 19:05 Ice Warning 12.9F - 29F 32F 5 0% - - 100% 0 mhos 34 - Yes - - -
02/08/2018 18:56 Ice Warning 12.4F - 29F 32F 5 0% - - 100% 0 mhos 33 - Yes - - -
02/08/2018 18:50 Ice Warning 12.6F - 29F 32F 5 0% - - 100% 0 mhos 33 - Yes - - -
02/08/2018 18:45 Ice Warning 12.9F - 29F 32F 5 0% - - 100% 0 mhos 34 - Yes - - -
02/08/2018 18:35 Ice Warning 13.1F - 29F 32F 5 0% - - 100% 0 mhos 34 - Yes - - -
02/08/2018 18:35 Ice Warning 13.1F - 29F 32F 5 0% - - 100% 0 mhos 34 - Yes - - -
02/08/2018 18:25 Ice Warning 13.3F - 29F 32F 5 0% - - 100% 0 mhos 33 - Yes - - -
Change End Date:

Copyright © 1998-2015 Vaisala, Inc.
All Rights Reserved
Send comments about the data to:
SCAN Web ® is a registered trademark of Vaisala, Inc.
SCAN Web Version 6.0